Torna al catalogo

ONEWEB-0180

AttivoComunicazioniPO
NORAD 48213·PAYLOAD·🇬🇧 United Kingdom

Lanciato Apr 25, 2021 da Vostochny Cosmodrome

Loading…

Prossimi Passaggi (prossime 24 ore)

TLE

AggiornatoSource: CelesTrak SupGP

Epoca: Sep 14, 2026, 16:17 UTC

1 48213C 21031D   26257.67900880 -.00002089  00000+0 -56430-2 0  2572
2 48213  87.8895 271.8568 0001557  87.5044 313.2687 13.14502908    12

Traccia ONEWEB-0180 in tempo reale con AllMySat

Download on the App Store